Location: Cahas Mountain Overlook
(37.0833°N, 80.1000°W)
Time: 17:19:47
(UTC-04:00)

LilacSat-2 - Visible Passes

Search period start: 31 March 2023 00:00
Search period end: 10 April 2023 00:00
Orbit: 498 x 521 km, 97.5° (Epoch: 31 March)

Date Brightness Start Highest point End Pass type
(mag) Time Alt. Az. Time Alt. Az. Time Alt. Az.
02 Apr ? 06:32:22 10° NE 06:35:04 19° E 06:37:47 10° SE visible
03 Apr ? 06:16:53 10° ENE 06:18:19 12° E 06:19:45 10° ESE visible
08 Apr ? 06:26:28 10° NE 06:28:50 16° E 06:31:12 10° SE visible
